Orbital Elements at Epoch 2459000.5 (2020-May-31.0) TDB
Reference: JPL 9 (heliocentric ecliptic J2000)
Element | Value | Uncertainty (1-sigma) | Units |
e | .1586812542921587 | 5.4763e-08 | |
a | 2.336598713569121 | 1.759e-08 | au |
q | 1.965824298922528 | 1.3159e-07 | au |
i | 2.298062325851112 | 7.9511e-06 | deg |
node | 301.7439466980316 | 0.00017958 | deg |
peri | 112.2535256597893 | 0.00018366 | deg |
M | 219.1610003881953 | 3.6664e-05 | deg |
tp | 2459510.881657026069 (2021-Oct-23.38165703) | 0.0001363 | TDB |
period | 1304.591746858619 3.57 | 1.4731e-05 4.033e-08 | d yr |
n | .2759483960149672 | 3.116e-09 | deg/d |
Q | 2.707373128215713 | 2.0381e-08 | au |
|
| | Orbit Determination Parameters
Additional Information
|